Weather History for Knoxville, TN

Change the Weather History Date:

Thursday, August 14, 2014

  Actual Average Record
Temperature  
Mean Temperature 70 °F 78 °F  
Max Temperature 82 °F 88 °F 98 °F (1995)
Min Temperature 58 °F 68 °F 58 °F (1967)
Degree Days  
Heating Degree Days 0 0  
Month to date heating degree days 0 0  
Since 1 June heating degree days 0 4  
Since 1 July heating degree days 0 0  
Cooling Degree Days 5 13  
Month to date cooling degree days 142 182  
Year to date cooling degree days 994 1066  
Since 1 June cooling degree days 789 904  
Growing Degree Days 20 (Base 50)    
Moisture  
Dew Point 59 °F    
Average Humidity 71    
Maximum Humidity 97    
Minimum Humidity 45    
Precipitation  
Precipitation 0.00 in 0.11 in 2.00 in (1872)
Month to date precipitation 1.92 1.66  
Year to date precipitation 27.17 31.99  
Snow  
Snow 0.00 in 0.00 in - ()
Month to date snowfall 0.0 0.0  
Since 1 June snowfall 0.0 0.0  
Since 1 July snowfall 0.0 0.0  
Snow Depth 0.00 in    
Sea Level Pressure  
Sea Level Pressure 30.02 in    
Wind  
Wind Speed 4 mph (NNE)    
Max Wind Speed 10 mph    
Max Gust Speed 12 mph    
Visibility 10 miles    
Events      
T = Trace of Precipitation, MM = Missing Value Source: NWS Daily Summary

Daily Weather History Graph

Daily Weather History Graph

Search for Another Location

Airport:

Trip Planner

Search our weather history database for the weather conditions in past years. The results will help you decide how hot, cold, wet, or windy it might be!

Date:

Astronomy

Aug. 14, 2014 Rise Set
Actual Time 6:53 AM EDT 8:26 PM EDT
Civil Twilight 6:26 AM EDT 8:53 PM EDT
Nautical Twilight 5:53 AM EDT 9:26 PM EDT
Astronomical Twilight 5:19 AM EDT 10:00 PM EDT
Moon 11:00 PM EDT (8/14) 11:18 AM EDT (8/14)
Length of Visible Light 14h 27m
Length of Day
13h 32m
Waning Gibbous, 79% of the Moon is Illuminated
Aug 14
Waning Gibbous
Aug 17
Last Quarter
Aug 25
New
Sep 2
First Quarter
Sep 8
Full

Hourly Weather History & Observations

Time (EDT) Temp. Heat Index Dew Point Humidity Pressure Visibility Wind Dir Wind Speed Gust Speed Precip Events Conditions
12:53 AM 64.0 °F - 59.0 °F 84% 30.04 in 10.0 mi NNE 5.8 mph - N/A   Clear
1:53 AM 61.0 °F - 57.9 °F 90% 30.04 in 10.0 mi NNE 4.6 mph - N/A   Clear
2:53 AM 61.0 °F - 57.9 °F 90% 30.02 in 10.0 mi NNE 4.6 mph - N/A   Clear
3:53 AM 59.0 °F - 57.9 °F 96% 30.02 in 8.0 mi Calm Calm - N/A   Clear
4:53 AM 60.1 °F - 57.9 °F 93% 30.02 in 10.0 mi North 4.6 mph - N/A   Clear
5:53 AM 60.1 °F - 57.9 °F 93% 30.03 in 10.0 mi North 5.8 mph - N/A   Mostly Cloudy
6:53 AM 59.0 °F - 57.9 °F 96% 30.05 in 8.0 mi North 4.6 mph - N/A   Partly Cloudy
7:53 AM 61.0 °F - 59.0 °F 93% 30.06 in 8.0 mi NNE 4.6 mph - N/A   Partly Cloudy
8:53 AM 64.0 °F - 60.1 °F 87% 30.08 in 10.0 mi NE 6.9 mph - N/A   Partly Cloudy
9:53 AM 68.0 °F - 60.1 °F 76% 30.08 in 10.0 mi NE 9.2 mph - N/A   Partly Cloudy
10:53 AM 73.0 °F - 62.1 °F 68% 30.08 in 10.0 mi NE 9.2 mph - N/A   Partly Cloudy
11:53 AM 75.0 °F - 60.1 °F 60% 30.07 in 10.0 mi NNE 4.6 mph - N/A   Partly Cloudy
1:53 PM 77.0 °F - 59.0 °F 54% 30.03 in 10.0 mi Calm Calm - N/A   Partly Cloudy
2:53 PM 79.0 °F - 57.0 °F 47% 30.02 in 10.0 mi South 5.8 mph - N/A   Partly Cloudy
3:53 PM 80.1 °F 80.7 °F 59.0 °F 48% 30.00 in 10.0 mi West 3.5 mph - N/A   Partly Cloudy
4:53 PM 80.1 °F 80.4 °F 57.0 °F 45% 29.99 in 10.0 mi Calm Calm - N/A   Partly Cloudy
5:53 PM 81.0 °F 81.3 °F 59.0 °F 47% 29.98 in 10.0 mi Variable 5.8 mph - N/A   Partly Cloudy
6:53 PM 80.1 °F 80.6 °F 57.9 °F 47% 29.98 in 10.0 mi West 8.1 mph - N/A   Partly Cloudy
7:53 PM 75.0 °F - 61.0 °F 62% 29.98 in 10.0 mi SW 5.8 mph - N/A   Partly Cloudy
8:53 PM 75.0 °F - 59.0 °F 57% 29.98 in 10.0 mi SW 3.5 mph - N/A   Partly Cloudy
9:53 PM 73.9 °F - 60.1 °F 62% 29.99 in 10.0 mi West 3.5 mph - N/A   Clear
10:53 PM 69.1 °F - 62.1 °F 78% 30.00 in 10.0 mi NE 3.5 mph - N/A   Clear
11:53 PM 66.9 °F - 62.1 °F 84% 30.01 in 10.0 mi Calm Calm - N/A   Clear